Weather History for Montrose, CO

Change the Weather History Date:

Thursday, August 8, 2013

  Actual Average Record
Temperature  
Mean Temperature 70 °F 72 °F  
Max Temperature 81 °F 87 °F 96 °F (2000)
Min Temperature 58 °F 57 °F 52 °F (2014)
Degree Days  
Heating Degree Days 0 0  
Month to date heating degree days 0 0  
Since 1 June heating degree days 9 39  
Since 1 July heating degree days 0 0  
Cooling Degree Days 5 7  
Month to date cooling degree days 41 62  
Year to date cooling degree days 657 484  
Since 1 June cooling degree days 632 467  
Growing Degree Days 20 (Base 50)    
Moisture  
Dew Point 47 °F    
Average Humidity 48    
Maximum Humidity 72    
Minimum Humidity 23    
Precipitation  
Precipitation T in 0.05 in 0.10 in (1999)
Month to date precipitation 0.75 0.32  
Year to date precipitation 5.48 6.39  
Sea Level Pressure  
Sea Level Pressure 29.99 in    
Wind  
Wind Speed 7 mph (SE)    
Max Wind Speed 23 mph    
Max Gust Speed 28 mph    
Visibility 10 miles    
Events Rain , Thunderstorm    
T = Trace of Precipitation, MM = Missing Value Source: NWS Daily Summary

Daily Weather History Graph

Daily Weather History Graph

Search for Another Location

Airport:

Trip Planner

Search our weather history database for the weather conditions in past years. The results will help you decide how hot, cold, wet, or windy it might be!

Date:

Astronomy

Aug. 08, 2013 Rise Set
Actual Time 6:19 AM MDT 8:13 PM MDT
Civil Twilight 5:51 AM MDT 8:42 PM MDT
Nautical Twilight 5:15 AM MDT 9:17 PM MDT
Astronomical Twilight 4:38 AM MDT 9:55 PM MDT
Moon 8:07 AM MDT (8/8) 8:56 PM MDT (8/8)
Length of Visible Light 14h 51m
Length of Day
13h 53m
Waxing Crescent, 3% of the Moon is Illuminated
Aug 8
Waxing Crescent
Aug 14
First Quarter
Aug 20
Full
Aug 28
Last Quarter
Sep 5
New

Hourly Weather History & Observations

Time (MDT) Temp. Dew Point Humidity Pressure Visibility Wind Dir Wind Speed Gust Speed Precip Events Conditions
12:53 AM 63.0 °F 51.1 °F 65% 29.95 in 10.0 mi SE 3.5 mph - N/A   Clear
1:53 AM 63.0 °F 51.1 °F 65% 29.95 in 10.0 mi South 5.8 mph - N/A   Clear
2:53 AM 62.1 °F 51.1 °F 67% 29.94 in 10.0 mi East 3.5 mph - N/A   Clear
3:53 AM 62.1 °F 51.1 °F 67% 29.93 in 10.0 mi ESE 3.5 mph - N/A   Scattered Clouds
4:53 AM 61.0 °F 52.0 °F 72% 29.93 in 10.0 mi Calm Calm - N/A   Mostly Cloudy
5:53 AM 61.0 °F 50.0 °F 67% 29.95 in 10.0 mi East 4.6 mph - N/A   Clear
6:53 AM 60.1 °F 51.1 °F 72% 29.97 in 10.0 mi South 4.6 mph - N/A   Partly Cloudy
7:53 AM 61.0 °F 52.0 °F 72% 29.98 in 10.0 mi ESE 4.6 mph - N/A   Clear
8:53 AM 63.0 °F 51.1 °F 65% 30.00 in 10.0 mi Calm Calm - N/A   Clear
9:53 AM 66.9 °F 48.9 °F 52% 29.99 in 10.0 mi Calm Calm - N/A   Clear
10:53 AM 71.1 °F 48.9 °F 45% 29.98 in 10.0 mi Calm Calm - N/A   Clear
11:53 AM 75.0 °F 48.0 °F 38% 29.96 in 10.0 mi NW 4.6 mph - N/A   Clear
12:53 PM 77.0 °F 44.1 °F 31% 29.94 in 10.0 mi WNW 6.9 mph - N/A   Clear
1:53 PM 79.0 °F 43.0 °F 28% 29.92 in 10.0 mi WNW 8.1 mph - N/A   Clear
2:53 PM 80.1 °F 39.9 °F 24% 29.90 in 10.0 mi WSW 8.1 mph - N/A   Clear
3:53 PM 79.0 °F 42.1 °F 27% 29.90 in 10.0 mi SSE 19.6 mph 23.0 mph N/A   Partly Cloudy
4:00 PM 78.8 °F 42.8 °F 28% 30.13 in 10.0 mi South 15.0 mph 23.0 mph N/A Thunderstorm Partly Cloudy
4:21 PM 77.0 °F 42.8 °F 29% 30.14 in 10.0 mi SSE 12.7 mph - N/A   Partly Cloudy
4:36 PM 77.0 °F 42.8 °F 29% 30.14 in 10.0 mi SSE 10.4 mph - N/A Thunderstorm Partly Cloudy
4:50 PM 77.0 °F 42.8 °F 29% 30.15 in 10.0 mi SSE 11.5 mph - N/A Thunderstorm Scattered Clouds
4:51 PM 77.0 °F 42.1 °F 29% 29.91 in 10.0 mi SE 11.5 mph - N/A Thunderstorm Scattered Clouds
5:11 PM 75.2 °F 44.6 °F 34% 30.15 in 10.0 mi East 9.2 mph - N/A   Overcast
5:53 PM 75.9 °F 43.0 °F 31% 29.92 in 10.0 mi East 8.1 mph - N/A   Clear
6:53 PM 71.1 °F 45.0 °F 39% 29.96 in 10.0 mi NNW 12.7 mph - N/A   Mostly Cloudy
7:53 PM 66.9 °F 50.0 °F 54% 30.01 in 10.0 mi Calm Calm - 0.00 in Rain Light Rain
8:53 PM 66.0 °F 50.0 °F 56% 30.05 in 10.0 mi East 10.4 mph - 0.00 in   Overcast
9:53 PM 64.9 °F 48.0 °F 54% 30.04 in 10.0 mi ESE 11.5 mph 19.6 mph 0.00 in   Partly Cloudy
10:53 PM 64.0 °F 48.0 °F 56% 30.01 in 10.0 mi East 16.1 mph 23.0 mph N/A   Clear
11:53 PM 63.0 °F 48.0 °F 58% 30.01 in 10.0 mi East 6.9 mph - N/A   Clear